This demonstration page uses our WeatherBlox Daily Observations layout. Learn more.

Left ArrowRight Arrow

41.12389, -100.76542

Hourly Observations for September 18, 2017

Temp ( °F °C ) Dew Point ( °F °C ) Humidity (%) Winds ( mph kmh ) Pressure ( in mb ) Visibility ( mi km ) Precip ( " mm )
12:10 am 00:10 Cloudy with Nearby Thunderstorms 61 16.1 52 11.1 72 72 ESE 3 6 30.00 1016 10 16 0.00 0.00
12:35 am 00:35 Cloudy 61 16.1 53 11.7 75 75 SSE 5 7 30.00 1016 10 16 0.00 0.00
12:53 am 00:53 Cloudy 61 16.1 53 11.7 75 75 SSE 5 7 30.03 1017 10 16 0.00 0.00
1:53 am 01:53 Cloudy 61 16.1 54 12.2 78 78 Calm 30.03 1017 10 16 0.00 0.00
2:16 am 02:16 Cloudy 61 16.1 54 12.2 78 78 S 5 7 30.00 1016 10 16 0.00 0.00
2:53 am 02:53 Mostly Cloudy 60 15.6 55 12.8 84 84 SSE 10 17 29.97 1015 10 16 0.00 0.00
3:01 am 03:01 Mostly Cloudy with Light Rain 60 15.6 55 12.8 84 84 SSE 14 22 29.94 1014 10 16 0.00 0.03
3:53 am 03:53 Mostly Clear 59 15 55 12.8 87 87 S 15 24 29.93 1013 10 16 0.00 0.03
4:53 am 04:53 Clear 58 14.4 55 12.8 90 90 S 5 7 29.92 1013 10 16 0.00 0.00
5:53 am 05:53 Clear 57 13.9 55 12.8 93 93 Calm 29.92 1013 10 16 0.00 0.00
6:47 am 06:47 Mostly Cloudy with Mist and Fog 54 12 54 12 100 100 Calm 29.94 1014 2 3 0.00 0.00
6:53 am 06:53 Mostly Cloudy with Mist and Fog 54 12.2 53 11.7 97 97 W 3 6 29.93 1014 5 8 0.00 0.00
7:53 am 07:53 Cloudy 58 14.4 56 13.3 93 93 SW 3 6 29.94 1014 9 14 0.00 0.00
8:42 am 08:42 Cloudy 60 15.6 57 13.9 90 90 WSW 7 11 29.94 1014 8 13 0.00 0.00
8:53 am 08:53 Cloudy 60 15.6 57 13.9 90 90 WSW 7 11 29.94 1014 8 13 0.00 0.00
9:53 am 09:53 Cloudy 61 16.1 57 13.9 87 87 WSW 7 11 29.95 1014 9 14 0.00 0.00
10:43 am 10:43 Cloudy 62 16.7 57 13.9 84 84 SW 8 13 29.91 1013 9 14 0.00 0.00
10:53 am 10:53 Cloudy 62 16.7 57 13.9 84 84 WSW 8 13 29.95 1014 8 13 0.00 0.00
11:53 am 11:53 Cloudy 65 18.3 58 14.4 78 78 SW 8 13 29.93 1014 10 16 0.00 0.00
12:30 pm 12:30 Partly Cloudy 67 19.4 58 14.4 73 73 SW 8 13 29.85 1011 10 16 0.00 0.00
12:53 pm 12:53 Sunny 70 21.1 58 14.4 66 66 S 6 9 29.89 1012 10 16 0.00 0.00
1:53 pm 13:53 Sunny 74 23.3 58 14.4 57 57 VRB 3 6 29.86 1011 10 16 0.00 0.00
2:53 pm 14:53 Sunny 79 26.1 57 13.9 47 47 SE 6 9 29.83 1010 10 16 0.00 0.00
3:53 pm 15:53 Sunny 82 27.8 55 12.8 40 40 VRB 7 11 29.80 1009 10 16 0.00 0.00
4:53 pm 16:53 Sunny 82 27.8 55 12.8 40 40 SE 10 17 29.79 1009 10 16 0.00 0.00
5:53 pm 17:53 Sunny 81 27.2 58 14.4 45 45 ESE 12 19 29.78 1009 10 16 0.00 0.00
6:53 pm 18:53 Sunny 77 25 55 12.8 47 47 SE 8 13 29.79 1009 10 16 0.00 0.00
7:53 pm 19:53 Clear 67 19.4 55 12.8 66 66 E 7 11 29.80 1009 10 16 0.00 0.00
8:53 pm 20:53 Clear 62 16.7 56 13.3 80 80 E 9 15 29.82 1010 10 16 0.00 0.00
9:53 pm 21:53 Clear 60 15.6 56 13.3 86 86 ESE 7 11 29.82 1010 10 16 0.00 0.00
10:53 pm 22:53 Clear 59 15 56 13.3 90 90 ESE 6 9 29.81 1010 10 16 0.00 0.00
11:53 pm 23:53 Clear 58 14.4 55 12.8 90 90 ESE 8 13 29.80 1009 10 16 0.00 0.00

Powered by AerisWeather